Regional Weather Roundup
Issued by NWS

Home | Current Version | Previous Version | Graphics & Text | Print | Product List | Glossary On
Versions: 1 2 3 4 5 6 7 8 9 10 11 12 13 14 15 16 17 18 19 20 21 22 23 24 25 26 27
000
ASUS43 KDMX 200507
RWRIA

WEATHER ROUNDUP FOR IOWA
NATIONAL WEATHER SERVICE DES MOINES IA
1200 AM CDT SUN APR 20 2014

NOTE: "FAIR" INDICATES FEW OR NO CLOUDS BELOW 12,000 FEET WITH NO
SIGNIFICANT WEATHER AND/OR OBSTRUCTIONS TO VISIBILITY.

* - THESE STATIONS ARE NOT NWS STATIONS...THUS NOT UNDER NWS
QUALITY CONTROL.  THEY ALSO DO NOT REPORT WEATHER SUCH
AS PRECIPITATION OR FOG.

IAZ001>003-012>014-020>022-031>034-043>046-200600-
   NORTHWEST IOWA

CITY           SKY/WX    TMP DP  RH WIND       PRES   REMARKS
CARROLL *      CLOUDY    66  45  45 S15       30.02S
CHEROKEE *     CLOUDY    61  46  59 CALM      29.99S
DENISON *      CLOUDY    68  45  42 S14G23    30.00S
LE MARS *      CLOUDY    57  48  72 NE7       30.00S
ORANGE CITY *  CLOUDY    61  46  59 NE9       30.01S
SHELDON *      CLOUDY    57  46  67 NE8       30.01R
SIOUX CITY     CLOUDY    60  48  64 NW8       29.98F
SPENCER        CLOUDY    59  48  67 N9        30.02R
STORM LAKE *   CLOUDY    63  45  51 S10       30.01F
$$

IAZ055>058-069>071-079>083-090>094-200600-
   SOUTHWEST IOWA

CITY           SKY/WX    TMP DP  RH WIND       PRES   REMARKS
ATLANTIC *     CLOUDY    64  45  48 S9        30.03S
AUDUBON *      PTCLDY    64  41  42 S9        30.05S
CLARINDA *     CLEAR     64  45  48 S7        30.06S
COUNCIL BLFS * MOCLDY    66  46  48 S14       30.00S
CRESTON *      MOCLDY    61  45  55 S9G15     30.08S
HARLAN  *      CLOUDY    66  45  45 S15       30.05S
LAMONI         CLEAR     62  44  51 S10       30.08F
RED OAK *      MOCLDY    64  46  52 S14       30.03F
SHENANDOAH *   CLEAR     66  45  45 S16       30.03F
$$

IAZ047>049-059>061-072>074-084-200600-
   CENTRAL IOWA

CITY           SKY/WX    TMP DP  RH WIND       PRES   REMARKS
AMES           CLOUDY    65  44  46 S10       30.06S
ANKENY *       CLOUDY    64  46  52 S6        30.07S
CHARITON *     PTCLDY    59  45  58 S13       30.09F
DES MOINES     CLOUDY    66  44  45 S10       30.07F
GRINNELL*      PTCLDY    59  43  55 S13       30.10S
KNOXVILLE *    CLEAR     61  43  51 SE8       30.09F
MARSHALLTOWN   CLOUDY    64  44  48 S10       30.07F
NEWTON *       CLOUDY    61  43  51 S9        30.09S
PELLA *        PTCLDY    59  43  55 SE7       30.11S
PERRY *        CLOUDY    64  43  45 S13       30.04F
$$

IAZ004>006-015-016-023>025-035-036-200600-
   NORTH CENTRAL IOWA

CITY           SKY/WX    TMP DP  RH WIND       PRES   REMARKS
ALGONA *       CLOUDY    66  45  45 S17       30.01S
CLARION *      CLOUDY    64  45  48 S16       30.03S
ESTHERVILLE    CLOUDY    56  49  77 N6        30.01S
FORT DODGE *   CLOUDY    66  45  45 S15       30.03F
MASON CITY     CLOUDY    60  47  61 S9        30.04F
FOREST CITY *  CLOUDY    61  45  55 S10       30.02S
IOWA FALLS *   CLOUDY    64  45  48 S13       30.06F
$$

IAZ007>011-017>019-026>030-037>042-050>054-066-200600-
   NORTHEAST IOWA

CITY           SKY/WX    TMP DP  RH WIND       PRES   REMARKS
CEDAR RAPIDS   MOCLDY    58  40  51 S7        30.12R
CHARLES CITY * CLOUDY    61  45  55 S12       30.07S
CLINTON *      PTCLDY    54  36  50 SE8       30.19S
DECORAH *      CLOUDY    61  41  48 S13G18    30.08S
DUBUQUE        CLOUDY    57  36  45 SE13      30.15S
MONTICELLO *   CLOUDY    57  39  51 SE9       30.14R
OELWEIN *      CLOUDY   N/A N/A N/A S13       30.10S
WATERLOO       CLOUDY    63  42  46 S15       30.08S
$$

IAZ064-065-067-068-078-200600-
   EAST CENTRAL IOWA

CITY           SKY/WX    TMP DP  RH WIND       PRES   REMARKS
DAVENPORT      PTCLDY    58  36  43 S10       30.17R
IOWA CITY      PTCLDY    54  40  59 SE6       30.15R
MT. PLEASANT * PTCLDY    59  39  47 S9        30.15S
MUSCATINE *    CLEAR     55  41  58 CALM      30.15S
QUAD CITIES    CLEAR     56  36  47 S10       30.16R
$$

IAZ062-063-075>077-085>089-095>099-200600-
   SOUTHEAST IOWA

CITY           SKY/WX    TMP DP  RH WIND       PRES   REMARKS
BURLINGTON     PTCLDY    59  40  49 S9        30.15S
FAIRFIELD *    CLEAR     59  37  44 S10       30.14S
FORT MADISON * CLEAR     61  41  48 S8        30.17R
KEOKUK *       CLEAR     63  41  45 S9        30.15R
OSKALOOSA *      N/A     55  43  62 S7        30.12S
CENTERVILLE *  CLEAR     54  41  62 SE6       30.14S
OTTUMWA        CLEAR     60  41  49 S12       30.12S
WASHINGTON *   CLEAR     61  39  44 S12       30.14S
$$

ABBREVIATIONS USED IN REMARKS
   TC - TEMPERATURES IN CELSIUS
  WCI - WIND CHILL INDEX
   HX - HEAT INDEX
  VSB - VISIBILITY
$$




USA.gov is the U.S. government's official web portal to all federal, state and local government web resources and services.